Location: Moy Burn
(57.3833°N, 4.0667°W)
Time: 09:05:51
(UTC+00:00)

Thor Agena Rocket - Pass Details

Date: 08 August 2020
Orbit: 760 x 807 km, 99.0° (Epoch: 18 September)

Event Time Altitude Azimuth Distance (km) Brightness Sun altitude
Rises 22:46:59 0° 20° (NNE) 3,239 7.5 -14.2°
Reaches altitude 10° 22:49:25 10° 28° (NNE) 2,311 6.5 -14.4°
Maximum altitude 22:54:14 42° 99° (E) 1,095 4.1 -14.6°
Enters shadow 22:56:58 23° 156° (SSE) 1,599 4.5 -14.7°
